OE5HMR-13 Weather Reports


time (UTC)temp
F
wind
direction
speed
knots
gust
knots
rain 1hr
in
rain 24hr
in
rain mn
in
humidity
%
barometer
mb
20260506124533 70 0.0 0.0 0.00 0.00 0.00 39 1006.0
20260506123525 70 0.0 0.0 0.00 0.00 0.00 40 1006.9
20260506122533 70 0.0 0.0 0.00 0.00 0.00 43 1006.9
20260506121533 69 0.0 0.0 0.00 0.00 0.00 42 1006.9
20260506120526 68 0.0 0.0 0.00 0.00 0.00 43 1006.9
20260506115552 67 0.0 0.0 0.00 0.00 0.00 44 1006.9
20260506114527 68 0.0 0.0 0.00 0.00 0.00 46 1006.9
20260506113551 66 0.0 0.0 0.00 0.00 0.00 47 1006.9
20260506112531 66 0.0 0.0 0.00 0.00 0.00 48 1006.9
20260506111533 66 0.0 0.0 0.00 0.00 0.00 49 1006.9
20260506110531 65 0.0 0.0 0.00 0.00 0.00 49 1006.9
20260506105529 65 0.0 0.0 0.00 0.00 0.00 49 1006.9
20260506104538 65 0.0 0.0 0.00 0.00 0.00 50 1006.9
20260506103529 65 0.0 0.0 0.00 0.00 0.00 50 1006.9
20260506102532 65 0.0 0.0 0.00 0.00 0.00 51 1006.9
20260506101528 65 0.0 0.0 0.00 0.00 0.00 52 1006.9
20260506100544 64 0.0 0.0 0.00 0.00 0.00 52 1006.9
20260506095524 64 0.0 0.0 0.00 0.00 0.00 52 1006.9
20260506094528 64 0.0 0.0 0.00 0.00 0.00 52 1007.0
20260506093525 64 0.0 0.0 0.00 0.00 0.00 53 1008.0
20260506092525 63 0.0 0.0 0.00 0.00 0.00 55 1008.0
20260506091542 62 0.0 0.0 0.00 0.00 0.00 56 1008.0
20260506090525 62 0.0 0.0 0.00 0.00 0.00 56 1008.0
20260506085528 62 0.0 0.0 0.00 0.00 0.00 58 1008.0
20260506084553 61 0.0 0.0 0.00 0.00 0.00 59 1008.0
20260506083531 61 0.0 0.0 0.00 0.00 0.00 60 1008.0
20260506082606 61 0.0 0.0 0.00 0.00 0.00 61 1008.0
20260506081535 60 0.0 0.0 0.00 0.00 0.00 63 1008.0
20260506080527 59 0.0 0.0 0.00 0.00 0.00 63 1008.0
20260506072535 56 0.0 0.0 0.00 0.00 0.00 71 1006.9
20260506071535 56 0.0 0.0 0.00 0.00 0.00 72 1007.1
20260506070529 55 0.0 0.0 0.00 0.00 0.00 72 1008.0
20260506061528 52 0.0 0.0 0.00 0.00 0.00 79 1008.0
20260506060530 52 0.0 0.0 0.00 0.00 0.00 80 1008.0
20260506050535 50 0.0 0.0 0.00 0.00 0.00 82 1008.0
20260506044611 49 0.0 0.0 0.00 0.00 0.00 82 1008.0
20260506043548 49 0.0 0.0 0.00 0.00 0.00 82 1008.0
20260506042540 49 0.0 0.0 0.00 0.00 0.00 83 1008.0
20260506041532 49 0.0 0.0 0.00 0.00 0.00 83 1008.0
20260506040539 48 0.0 0.0 0.00 0.00 0.00 82 1008.0
20260506035531 48 0.0 0.0 0.00 0.00 0.00 82 1008.0
20260506034534 48 0.0 0.0 0.00 0.00 0.00 82 1008.0
20260506033549 47 0.0 0.0 0.00 0.00 0.00 82 1008.0
20260506032535 47 0.0 0.0 0.00 0.00 0.00 79 1008.0
20260506031551 47 0.0 0.0 0.00 0.00 0.00 79 1008.0
20260506030632 47 0.0 0.0 0.00 0.00 0.00 78 1008.0
20260506025534 47 0.0 0.0 0.00 0.00 0.00 76 1006.9
20260506024535 48 0.0 0.0 0.00 0.00 0.00 76 1007.0
20260506023527 48 0.0 0.0 0.00 0.00 0.00 75 1008.0
20260506022537 49 0.0 0.0 0.00 0.00 0.00 75 1008.0
20260506021527 49 0.0 0.0 0.00 0.00 0.00 77 1008.0
20260506020541 49 0.0 0.0 0.00 0.00 0.00 78 1008.0
20260506014525 50 0.0 0.0 0.00 0.00 0.00 76 1008.0
20260506013530 50 0.0 0.0 0.00 0.00 0.00 76 1008.0
20260506012534 51 0.0 0.0 0.00 0.00 0.00 76 1008.0
20260506011529 51 0.0 0.0 0.00 0.00 0.00 76 1008.0
20260506010612 51 0.0 0.0 0.00 0.00 0.00 76 1008.0
20260506005539 51 0.0 0.0 0.00 0.00 0.00 78 1008.0
20260506004524 51 0.0 0.0 0.00 0.00 0.00 78 1008.0
20260506003538 51 0.0 0.0 0.00 0.00 0.00 76 1008.0
20260506002536 51 0.0 0.0 0.00 0.00 0.00 77 1008.0
20260506001550 52 0.0 0.0 0.00 0.00 0.00 76 1008.0
20260506000527 51 0.0 0.0 0.00 0.00 0.00 76 1008.0
20260505235549 51 0.0 0.0 0.00 0.00 0.00 75 1008.0
20260505234524 51 0.0 0.0 0.00 0.00 0.00 75 1008.0
20260505233553 51 0.0 0.0 0.00 0.00 0.00 73 1008.0
20260505232525 50 0.0 0.0 0.00 0.00 0.00 72 1008.0
20260505231631 51 0.0 0.0 0.00 0.00 0.00 72 1008.0
20260505230544 50 0.0 0.0 0.00 0.00 0.00 72 1008.0
20260505225525 50 0.0 0.0 0.00 0.00 0.00 72 1006.9
20260505224531 51 0.0 0.0 0.00 0.00 0.00 73 1006.9
20260505223523 51 0.0 0.0 0.00 0.00 0.00 73 1006.9
20260505222529 51 0.0 0.0 0.00 0.00 0.00 73 1006.9
20260505221528 52 0.0 0.0 0.00 0.00 0.00 73 1006.9
20260505220540 52 0.0 0.0 0.00 0.00 0.00 73 1006.9
20260505215529 53 0.0 0.0 0.00 0.00 0.00 72 1006.9
20260505214527 53 0.0 0.0 0.00 0.00 0.00 71 1006.9
20260505213527 54 0.0 0.0 0.00 0.00 0.00 70 1006.9
20260505212538 54 0.0 0.0 0.00 0.00 0.00 70 1006.9
20260505211537 54 0.0 0.0 0.00 0.00 0.00 70 1006.9
20260505210527 54 0.0 0.0 0.00 0.00 0.00 70 1006.9
20260505205525 54 0.0 0.0 0.00 0.00 0.00 70 1006.9
20260505204525 55 0.0 0.0 0.00 0.00 0.00 69 1006.9
20260505203528 55 0.0 0.0 0.00 0.00 0.00 68 1006.9
20260505202607 55 0.0 0.0 0.00 0.00 0.00 67 1006.9
20260505201528 56 0.0 0.0 0.00 0.00 0.00 65 1006.9
20260505200523 57 0.0 0.0 0.00 0.00 0.00 63 1006.9
20260505195545 57 0.0 0.0 0.00 0.00 0.00 62 1006.9
20260505194540 58 0.0 0.0 0.00 0.00 0.00 59 1006.9
20260505193528 58 0.0 0.0 0.00 0.00 0.00 57 1006.9
20260505192545 59 0.0 0.0 0.00 0.00 0.00 54 1006.9
20260505191611 60 0.0 0.0 0.00 0.00 0.00 52 1006.8
20260505190536 61 0.0 0.0 0.00 0.00 0.00 47 1005.8
20260505185541 62 0.0 0.0 0.00 0.00 0.00 41 1004.7
20260505184528 63 0.0 0.0 0.00 0.00 0.00 36 1004.7
20260505183534 64 0.0 0.0 0.00 0.00 0.00 34 1004.7
20260505182531 65 0.0 0.0 0.00 0.00 0.00 33 1004.7
20260505181535 66 0.0 0.0 0.00 0.00 0.00 33 1004.7
20260505180535 67 0.0 0.0 0.00 0.00 0.00 32 1004.7
20260505175544 68 0.0 0.0 0.00 0.00 0.00 32 1004.7
20260505174533 68 0.0 0.0 0.00 0.00 0.00 31 1004.9
20260505173525 69 0.0 0.0 0.00 0.00 0.00 31 1005.8
20260505172527 70 0.0 0.0 0.00 0.00 0.00 30 1005.8
20260505171547 70 0.0 0.0 0.00 0.00 0.00 30 1005.7
20260505170525 71 0.0 0.0 0.00 0.00 0.00 30 1004.7
20260505165607 72 0.0 0.0 0.00 0.00 0.00 30 1005.8
20260505164526 72 0.0 0.0 0.00 0.00 0.00 29 1005.8
20260505163524 73 0.0 0.0 0.00 0.00 0.00 29 1005.8
20260505162531 73 0.0 0.0 0.00 0.00 0.00 29 1005.8
20260505161523 73 0.0 0.0 0.00 0.00 0.00 28 1005.8
20260505160531 73 0.0 0.0 0.00 0.00 0.00 30 1005.8
20260505152534 74 0.0 0.0 0.00 0.00 0.00 28 1005.8
20260505151527 73 0.0 0.0 0.00 0.00 0.00 28 1005.8
20260505150525 73 0.0 0.0 0.00 0.00 0.00 29 1005.8
20260505140525 75 0.0 0.0 0.00 0.00 0.00 28 1006.9